Hourly Data Report for September 14, 2017

All times are specified in Local Standard Time (LST). Add 1 hour to adjust for Daylight Saving Time where and when it is observed.

SAINT JOHN A
NEW BRUNSWICK

45°18'58.000" N
65°53'24.000" W
108.80 m
8104901
71609
YSJ

Download Data

Hourly Data (September 2017)
Hourly Data Report for September 14, 2017
Temp Definition
°C
Dew Point Temp Definition
°C
Rel Hum Definition
%
Wind Dir Definition
10's deg

Wind Spd Definition
km/h
Visibility Definition
km
Stn Press Definition
kPa
Hmdx Definition


Wind Chill Definition


Weather Definition


TIME
00:00 Legend Double Dagger 9.6 9.2 98 36 2 24.1 99.53     LegendNANA
01:00 Legend Double Dagger 9.6 9.1 97 19 3 24.1 99.55     LegendNANA
02:00 Legend Double Dagger 10.8 10.3 97 0 1 24.1 99.57     Mainly Clear
03:00 Legend Double Dagger 11.0 10.5 97 19 6 24.1 99.57     LegendNANA
04:00 Legend Double Dagger 12.6 12.0 96 23 3 24.1 99.56     LegendNANA
05:00 Legend Double Dagger 11.6 11.3 98 36 2 24.1 99.61     Mainly Clear
06:00 Legend Double Dagger 9.9 9.6 98 21 4 24.1 99.63     LegendNANA
07:00 Legend Double Dagger 12.2 11.8 98 18 7 24.1 99.68     LegendNANA
08:00 Legend Double Dagger 15.4 13.6 89 20 13 24.1 99.70     Mainly Clear
09:00 Legend Double Dagger 18.9 14.8 76 18 10 24.1 99.73     LegendNANA
10:00 Legend Double Dagger 22.1 15.6 66 20 10 24.1 99.72 26   LegendNANA
11:00 Legend Double Dagger 21.0 14.5 66 20 16 24.1 99.71 25   Mainly Clear
12:00 Legend Double Dagger 22.8 15.0 61 20 24 24.1 99.71 27   LegendNANA
13:00 Legend Double Dagger 21.9 14.9 64 21 21 24.1 99.71 26   LegendNANA
14:00 Legend Double Dagger 23.1 15.7 62 19 16 24.1 99.68 28   Mainly Clear
15:00 Legend Double Dagger 23.2 15.8 63 21 15 24.1 99.68 28   LegendNANA
16:00 Legend Double Dagger 20.5 15.2 71 19 21 24.1 99.69 25   LegendNANA
17:00 Legend Double Dagger 18.8 14.8 78 20 19 24.1 99.73     Mainly Clear
18:00 Legend Double Dagger 16.9 14.8 87 21 17 24.1 99.79     LegendNANA
19:00 Legend Double Dagger 14.8 14.1 95 22 10 24.1 99.86     LegendNANA
20:00 Legend Double Dagger 14.6 14.2 97 21 6 4.8 99.93     Fog
21:00 Legend Double Dagger 14.5 14.2 98 20 11 1.2 99.97     Fog
22:00 Legend Double Dagger 13.7 13.5 99 21 7 0.6 100.00     Fog
23:00 Legend Double Dagger 13.5 13.4 99 20 8 0.6 100.04     Fog

Notes on Data Quality.

Legend

  • E = Estimated
  • M = Missing
  • NA = Not Available
  • ‡ = Partner data that is not subject to review by the National Climate Archives
Date modified: